Flag for Oman Weather past 2 weeks in Salalah, Oman

Now
75 °F

Drizzle. Overcast.


Feels Like: 74 °F
Forecast: 79 / 85 °F
Wind: 3 mph from Southeast

Location: Salalah Airport

Current Time: Jul 24, 2014 at 3:16:25 AM

Latest Report: Jul 24, 2014 at 2:50 AM


Visibility: 1 mi

Pressure: 29.62 "Hg

Humidity: 94%

Dew point: 73 °F

Location of SalalahLocation

Historic Weather in Salalah — Graph

°F

Salalah temperature yesterday

Maximum temperature yesterday: 77 °F (at 11:50 AM)
Minimum temperature yesterday: 75 °F (at 2:50 AM)
Average temperature yesterday: 76 °F

Past Weeks' High & Low Weather Summary

 TemperatureHumidityPressure
High86 °F (Jul 16, 12:50 PM)94% (Jul 9, 1:50 AM)29.74 "Hg (Jul 9, 1:50 AM)
Low75 °F (Jul 20, 1:50 AM)66% (Jul 16, 12:50 PM)29.50 "Hg (Jul 17, 3:50 PM)
Average79 °F87%29.62 "Hg
* Reported Jul 9 1:50 AM — Jul 24 1:50 AM, Salalah, Weather by CustomWeather, © 2014

Note: Actual official high and low records may vary slightly from our data, if they occured in-between our weather recording intervals... More about our weather records

Advertising

Salalah weather history for previous 24 hours

 ConditionsComfort  
Time TempWeatherWind HumidityBarometerVisibility
1:50 AM
Jul 24
77 °FDrizzle. Overcast.6 mph89%29.62 "Hg1 mi
12:50 AM77 °FMostly cloudy.3 mph94%29.62 "Hg1 mi
11:50 PM
Jul 23
77 °FMostly cloudy.3 mph94%29.65 "Hg2 mi
10:50 PM77 °FWarm.No wind89%29.65 "Hg2 mi
9:50 PM77 °FWarm.3 mph89%29.65 "Hg2 mi
8:50 PM77 °FWarm.3 mph89%29.65 "Hg2 mi
7:50 PM75 °FMild.2 mph94%29.62 "Hg2 mi
6:50 PM77 °FDrizzle. Cloudy.2 mph89%29.62 "Hg1 mi
5:50 PM75 °FMild.7 mph94%29.59 "Hg2 mi
4:50 PM77 °FWarm.7 mph89%29.59 "Hg2 mi
1:50 PM77 °FDrizzle. Cloudy.9 mph89%29.59 "Hg2 mi
12:50 PM77 °FDrizzle. Cloudy.8 mph94%29.62 "Hg2 mi
11:50 AM77 °FDrizzle. Cloudy.7 mph94%29.62 "Hg2 mi
8:50 AM75 °FMild.3 mph94%29.62 "Hg2 mi
7:50 AM75 °FDrizzle. Cloudy.No wind94%29.62 "Hg1 mi
6:50 AM75 °FDrizzle. Cloudy.1 mph94%29.62 "Hg1 mi
5:50 AM75 °FDrizzle. Overcast.2 mph94%29.59 "Hg1 mi
4:50 AM75 °FMild.5 mph94%29.59 "Hg1 mi
3:50 AM75 °FMild.5 mph94%29.59 "Hg1 mi
Weather by CustomWeather, © 2014

See weather overviewHow to use our weather pages